sat.trackr.live / text

‹ back to catalog

JILIN-1 GAOFEN 03D50

NORAD 54690 · 2022-167J

PAYLOAD ACTIVE UNKNOWN

§ Identity

Operator
Country
PRC
Launch date
2022-12-09
Launch site
SEAL
Launch vehicle
Mass (kg)
RCS (m²)

External: N2YO · Heavens-Above · Gunter

§ Orbital elements

Epoch: 2026-09-20T22:20:14.351424Z

Period
93.74 min
Inclination
97.6913°
Eccentricity
0.0006223
Mean motion
15.36217010 rev/d
Perigee alt
453.1 km
Apogee alt
461.6 km
Semi-major
6,835.4 km
B*
2.1701e-4
RAAN
75.8752°
Arg perigee
119.1735°
Mean anomaly
241.0132°
Rev number
21,004

§ Raw data

JILIN-1 GAOFEN 03D501 54690U 22167J   26263.93072166  .00007577  00000+0  21701-3 0  99942 54690  97.6913  75.8752 0006223 119.1735 241.0132 15.36217010210041

JSON: /api/v1/satellites/54690 · /tle

For live sub-satellite position, see the globe view (requires WebGL).

§ Visibility from observer

Set your observer location to see the next 7 days of passes ≥ 10°. The values pass through the URL so the page stays shareable.

No JS? Fill the form by hand. The geolocation button needs JavaScript.